User: anonymous   Login
Location: Unspecified
(0.0000°N, 0.0000°E)
Time: 01:29:47
(UTC+01:00)
Language:

AO-40 - Orbit

View from above orbital plane
View from above orbital plane
View from above satellite
View from above satellite

Ground track
Ground track

The orbit data is extracted from the following two-line orbital elements,

1 26609U 00072B   15030.40859991 -.00000097  00000-0  00000+0 0  1163
2 26609 008.9439 010.4847 7944252 194.8582 108.2041 01.25586707 65426
Epoch (UTC): 30 January 2015 09:48:23
Eccentricity: 0.7944252
inclination: 8.9439°
perigee height: 1082 km
apogee height: 58739 km
right ascension of ascending node: 10.4847°
argument of perigee: 194.8582°
revolutions per day: 1.25586707
mean anomaly at epoch: 108.2041°
orbit number at epoch: 6542

The dashed part of the orbit path shows where the satellite is in the earth's shadow,  

DLR